User: anonymous   Login
Location: �perlecques
(50.8057°N, 2.1521°E)
Time: 12:37:44
(UTC+00:00)
Language:

Max Valier Satellite - Orbit

View from above orbital plane
View from above orbital plane
View from above satellite
View from above satellite

Ground track
Ground track

The orbit data is extracted from the following two-line orbital elements,

1 42778U 17036P   23092.06457755  .00028276  00000-0  82599-3 0  9991
2 42778  97.1679 128.8514 0008836  31.2094 328.9673 15.35228803321036
Epoch (UTC): 02 April 2023 01:32:59
Eccentricity: 0.0008836
inclination: 97.1679°
perigee height: 454 km
apogee height: 466 km
right ascension of ascending node: 128.8514°
argument of perigee: 31.2094°
revolutions per day: 15.35228803
mean anomaly at epoch: 328.9673°
orbit number at epoch: 32103

The dashed part of the orbit path shows where the satellite is in the earth's shadow,  

DLR